User: anonymous   Login
Location: Muenchen
(48.1800°N, 11.5800°E)
Time: 23:51:43
(UTC+01:00)
Language:

Iridium 37 - Orbit

View from above orbital plane
View from above orbital plane
View from above satellite
View from above satellite

Ground track
Ground track

The orbit data is extracted from the following two-line orbital elements,

1 24968U 97056D   14303.46708413  .00000612  00000-0  21130-3 0   192
2 24968 086.3988 000.4428 0002280 107.7382 252.4063 14.34218354894830
Epoch (UTC): 30 October 2014 11:12:36
Eccentricity: 0.0002280
inclination: 86.3988°
perigee height: 776 km
apogee height: 779 km
right ascension of ascending node: 0.4428°
argument of perigee: 107.7382°
revolutions per day: 14.34218354
mean anomaly at epoch: 252.4063°
orbit number at epoch: 89483

The dashed part of the orbit path shows where the satellite is in the earth's shadow,  

DLR